This is the latest recevied weather packets stored in our database for station/object KM4KMS. If no packets are shown the sender has not sent any weather packets the latest 10 day(s).
| Time | Temp. | Humidity | Pressure | Rain* | Wind** | Luminosity | Snow |
|---|---|---|---|---|---|---|---|
| 1778047065 | 14.44° C | 99% | 1005.1 hPa | 3.05 mm | - | 0 W/m² | - |
| 1778046762 | 14.44° C | 99% | 1005.3 hPa | 7.87 mm | - | 0 W/m² | - |
| 1778046459 | 14.44° C | 99% | 1005.2 hPa | 6.1 mm | - | 0 W/m² | - |
| 1778046156 | 14.44° C | 99% | 1005.3 hPa | 7.87 mm | - | 0 W/m² | - |
| 1778045853 | 14.44° C | 99% | 1005.5 hPa | 12.7 mm | - | 0 W/m² | - |
| 1778045552 | 14.44° C | 99% | 1005.5 hPa | 15.49 mm | - | 0 W/m² | - |
| 1778045249 | 14.44° C | 99% | 1005.6 hPa | 13.21 mm | - | 0 W/m² | - |
| 1778044948 | 14.44° C | 99% | 1005.2 hPa | 3.05 mm | - | 0 W/m² | - |
| 1778044645 | 14.44° C | 99% | 1005.3 hPa | 3.56 mm | - | 0 W/m² | - |
| 1778044341 | 14.44° C | 99% | 1005.4 hPa | 8.89 mm | - | 0 W/m² | - |
| 1778044039 | 14.44° C | 99% | 1005.6 hPa | 13.72 mm | - | 0 W/m² | - |
| 1778043736 | 14.44° C | 99% | 1006 hPa | 10.67 mm | - | 0 W/m² | - |
| 1778043433 | 14.44° C | 99% | 1006 hPa | 3.56 mm | - | 0 W/m² | - |
| 1778043129 | 14.44° C | 99% | 1005.6 hPa | 0 mm | - | 0 W/m² | - |
| 1778042827 | 14.44° C | 99% | 1005.1 hPa | 0 mm | - | 0 W/m² | - |
| 1778042523 | 14.44° C | 99% | 1005.2 hPa | 0 mm | - | 0 W/m² | - |
| 1778042221 | 14.44° C | 99% | 1005.1 hPa | 1.27 mm | - | 0 W/m² | - |
| 1778041919 | 14.44° C | 99% | 1005.2 hPa | 1.27 mm | - | 0 W/m² | - |
| 1778041618 | 14.44° C | 99% | 1005.1 hPa | 1.78 mm | - | 0 W/m² | - |
| 1778041315 | 14.44° C | 99% | 1005.1 hPa | 3.05 mm | - | 0 W/m² | - |
| 1778041014 | 14.44° C | 99% | 1005 hPa | 3.05 mm | - | 0 W/m² | - |
| 1778040710 | 14.44° C | 99% | 1005.2 hPa | 1.78 mm | - | 0 W/m² | - |
| 1778040411 | 14.44° C | 99% | 1005.2 hPa | 0 mm | - | 0 W/m² | - |
| 1778040104 | 14.44° C | 99% | 1005.3 hPa | 0 mm | - | 0 W/m² | - |
| 1778039801 | 14.44° C | 99% | 1005.4 hPa | 0 mm | - | 0 W/m² | - |
* Rain latest hour (hover to see other rain measurements)
** Current wind speed in m/s (hover to see current wind gust speed)